User: anonymous   Login
Location: Kitchener
(43.2612°N, 80.5078°W)
Time: 01:48:38
(UTC+02:00)
Language:

Iridium 57 - Orbit

View from above orbital plane
View from above orbital plane
View from above satellite
View from above satellite

Ground track
Ground track

The orbit data is extracted from the following two-line orbital elements,

1 25273U 98019B   16273.43757303  .00000103  00000-0  29769-4 0  9998
2 25273  86.3989  36.3141 0002036  94.1538 265.9891 14.34236389968694
Epoch (UTC): 29 September 2016 10:30:06
Eccentricity: 0.0002036
inclination: 86.3989°
perigee height: 776 km
apogee height: 779 km
right ascension of ascending node: 36.3141°
argument of perigee: 94.1538°
revolutions per day: 14.34236389
mean anomaly at epoch: 265.9891°
orbit number at epoch: 96869

The dashed part of the orbit path shows where the satellite is in the earth's shadow,  

DLR